Time,TemperatureF,DewpointF,PressureIn,WindDirection,WindDirectionDegrees,WindSpeedMPH,WindSpeedGustMPH,Humidity,HourlyPrecipIn,Conditions,Clouds,dailyrainin,SoftwareType,DateUTC
2013-09-11 00:01:00,79.2,57.2,30.09,NNW,339,0.0,0.0,47,0.00,,,0.00,WeatherCatV1.02B3,2013-09-11 04:01:00,
2013-09-11 00:03:00,79.2,57.2,30.08,NNW,339,0.0,0.0,47,0.00,,,0.00,WeatherCatV1.02B3,2013-09-11 04:03:00,
2013-09-11 00:08:00,79.1,57.1,30.08,NNW,339,0.0,0.0,47,0.00,,,0.00,WeatherCatV1.02B3,2013-09-11 04:08:00,
2013-09-11 00:13:00,79.0,57.0,30.09,NNW,339,0.0,0.0,47,0.00,,,0.00,WeatherCatV1.02B3,2013-09-11 04:13:00,
2013-09-11 00:18:00,78.9,56.9,30.09,NNW,339,0.0,0.0,47,0.00,,,0.00,WeatherCatV1.02B3,2013-09-11 04:18:00,
2013-09-11 00:23:00,78.8,56.2,30.09,NNW,339,0.0,0.0,46,0.00,,,0.00,WeatherCatV1.02B3,2013-09-11 04:23:00,
2013-09-11 00:28:00,78.7,56.2,30.08,NNW,339,0.0,0.0,46,0.00,,,0.00,WeatherCatV1.02B3,2013-09-11 04:28:00,
2013-09-11 00:33:00,78.7,55.5,30.08,NNW,339,0.0,0.0,45,0.00,,,0.00,WeatherCatV1.02B3,2013-09-11 04:33:00,
2013-09-11 00:38:00,78.7,55.5,30.08,NNW,339,0.0,1.0,45,0.00,,,0.00,WeatherCatV1.02B3,2013-09-11 04:38:00,
2013-09-11 00:43:00,78.7,55.5,30.07,NNW,339,0.0,3.0,45,0.00,,,0.00,WeatherCatV1.02B3,2013-09-11 04:43:00,
2013-09-11 00:48:00,78.7,54.9,30.07,NNW,339,3.0,3.0,44,0.00,,,0.00,WeatherCatV1.02B3,2013-09-11 04:48:00,
2013-09-11 00:53:00,78.6,54.8,30.07,NNW,339,0.0,0.0,44,0.00,,,0.00,WeatherCatV1.02B3,2013-09-11 04:53:00,
2013-09-11 00:58:00,78.5,54.7,30.07,NNW,339,0.0,0.0,44,0.00,,,0.00,WeatherCatV1.02B3,2013-09-11 04:58:00,
2013-09-11 01:03:00,78.4,54.7,30.07,NNW,339,0.0,0.0,44,0.00,,,0.00,WeatherCatV1.02B3,2013-09-11 05:03:00,
2013-09-11 01:08:00,78.3,54.6,30.07,NNW,339,0.0,0.0,44,0.00,,,0.00,WeatherCatV1.02B3,2013-09-11 05:08:00,
2013-09-11 01:13:00,78.2,54.5,30.07,NNW,339,0.0,0.0,44,0.00,,,0.00,WeatherCatV1.02B3,2013-09-11 05:13:00,
2013-09-11 01:18:00,78.2,54.5,30.07,NNW,339,0.0,0.0,44,0.00,,,0.00,WeatherCatV1.02B3,2013-09-11 05:18:00,
2013-09-11 01:23:00,78.1,54.4,30.07,NNW,339,0.0,0.0,44,0.00,,,0.00,WeatherCatV1.02B3,2013-09-11 05:23:00,
2013-09-11 01:28:00,78.1,53.8,30.06,NNW,339,0.0,0.0,43,0.00,,,0.00,WeatherCatV1.02B3,2013-09-11 05:28:00,
2013-09-11 01:33:00,78.0,54.3,30.06,NNW,339,0.0,0.0,44,0.00,,,0.00,WeatherCatV1.02B3,2013-09-11 05:33:00,
2013-09-11 01:38:00,77.9,53.6,30.06,NNW,339,2.0,3.0,43,0.00,,,0.00,WeatherCatV1.02B3,2013-09-11 05:38:00,
2013-09-11 01:43:00,78.0,53.0,30.06,NNW,339,0.0,1.0,42,0.00,,,0.00,WeatherCatV1.02B3,2013-09-11 05:43:00,
2013-09-11 01:48:00,77.9,52.3,30.06,NNW,339,2.0,4.0,41,0.00,,,0.00,WeatherCatV1.02B3,2013-09-11 05:48:00,
2013-09-11 01:53:00,77.9,52.3,30.06,NNW,339,0.0,0.0,41,0.00,,,0.00,WeatherCatV1.02B3,2013-09-11 05:53:00,
2013-09-11 01:58:00,77.8,52.2,30.06,NNW,339,0.0,0.0,41,0.00,,,0.00,WeatherCatV1.02B3,2013-09-11 05:58:00,
2013-09-11 02:03:00,77.7,52.1,30.06,NNW,339,0.0,0.0,41,0.00,,,0.00,WeatherCatV1.02B3,2013-09-11 06:03:00,
2013-09-11 02:08:00,77.6,52.0,30.06,NNW,339,0.0,0.0,41,0.00,,,0.00,WeatherCatV1.02B3,2013-09-11 06:08:00,
2013-09-11 02:13:00,77.6,52.0,30.06,NNW,339,0.0,0.0,41,0.00,,,0.00,WeatherCatV1.02B3,2013-09-11 06:13:00,
2013-09-11 02:18:00,77.5,51.9,30.05,NNW,339,0.0,0.0,41,0.00,,,0.00,WeatherCatV1.02B3,2013-09-11 06:18:00,
2013-09-11 02:23:00,77.4,52.5,30.05,NNW,339,0.0,0.0,42,0.00,,,0.00,WeatherCatV1.02B3,2013-09-11 06:23:00,
2013-09-11 02:28:00,77.4,51.8,30.05,NNW,339,0.0,0.0,41,0.00,,,0.00,WeatherCatV1.02B3,2013-09-11 06:28:00,
2013-09-11 02:33:00,77.3,51.7,30.06,NNW,339,0.0,0.0,41,0.00,,,0.00,WeatherCatV1.02B3,2013-09-11 06:33:00,
2013-09-11 02:38:00,77.2,51.7,30.06,NNW,339,0.0,0.0,41,0.00,,,0.00,WeatherCatV1.02B3,2013-09-11 06:38:00,
2013-09-11 02:43:00,77.1,51.6,30.06,NNW,339,0.0,0.0,41,0.00,,,0.00,WeatherCatV1.02B3,2013-09-11 06:43:00,
2013-09-11 02:48:00,77.0,51.5,30.06,NNW,339,0.0,0.0,41,0.00,,,0.00,WeatherCatV1.02B3,2013-09-11 06:48:00,
2013-09-11 02:53:00,76.9,51.4,30.06,NNW,339,0.0,0.0,41,0.00,,,0.00,WeatherCatV1.02B3,2013-09-11 06:53:00,
2013-09-11 02:58:00,77.0,50.8,30.06,NNW,339,0.0,1.0,40,0.00,,,0.00,WeatherCatV1.02B3,2013-09-11 06:58:00,
2013-09-11 03:03:00,77.0,49.4,30.06,NNW,339,2.0,7.0,38,0.00,,,0.00,WeatherCatV1.02B3,2013-09-11 07:03:00,
2013-09-11 03:08:00,77.0,49.4,30.05,NNW,339,0.0,4.0,38,0.00,,,0.00,WeatherCatV1.02B3,2013-09-11 07:08:00,
2013-09-11 03:13:00,76.9,49.3,30.05,NNW,339,0.0,4.0,38,0.00,,,0.00,WeatherCatV1.02B3,2013-09-11 07:13:00,
2013-09-11 03:18:00,76.9,48.6,30.05,NNW,339,0.0,3.0,37,0.00,,,0.00,WeatherCatV1.02B3,2013-09-11 07:18:00,
2013-09-11 03:23:00,76.8,48.5,30.04,NNW,339,0.0,0.0,37,0.00,,,0.00,WeatherCatV1.02B3,2013-09-11 07:23:00,
2013-09-11 03:28:00,76.8,48.5,30.04,NNW,339,0.0,0.0,37,0.00,,,0.00,WeatherCatV1.02B3,2013-09-11 07:28:00,
2013-09-11 03:33:00,76.7,48.4,30.04,NNW,339,0.0,0.0,37,0.00,,,0.00,WeatherCatV1.02B3,2013-09-11 07:33:00,
2013-09-11 03:38:00,76.8,47.8,30.04,NNW,339,3.0,4.0,36,0.00,,,0.00,WeatherCatV1.02B3,2013-09-11 07:38:00,
2013-09-11 03:43:00,76.8,47.8,30.04,NNW,339,2.0,3.0,36,0.00,,,0.00,WeatherCatV1.02B3,2013-09-11 07:43:00,
2013-09-11 03:48:00,76.7,47.7,30.04,NNW,339,0.0,0.0,36,0.00,,,0.00,WeatherCatV1.02B3,2013-09-11 07:48:00,
2013-09-11 03:53:00,76.6,47.6,30.04,NNW,339,0.0,1.0,36,0.00,,,0.00,WeatherCatV1.02B3,2013-09-11 07:53:00,
2013-09-11 03:58:00,76.6,47.6,30.04,NNW,339,0.0,5.0,36,0.00,,,0.00,WeatherCatV1.02B3,2013-09-11 07:58:00,
2013-09-11 04:03:00,76.6,47.6,30.04,NNW,339,0.0,5.0,36,0.00,,,0.00,WeatherCatV1.02B3,2013-09-11 08:03:00,
2013-09-11 04:08:00,76.6,47.6,30.04,NNW,339,3.0,5.0,36,0.00,,,0.00,WeatherCatV1.02B3,2013-09-11 08:08:00,
2013-09-11 04:13:00,76.5,47.5,30.04,NNW,339,4.0,5.0,36,0.00,,,0.00,WeatherCatV1.02B3,2013-09-11 08:13:00,
2013-09-11 04:18:00,76.5,46.8,30.04,NNW,339,2.0,2.0,35,0.00,,,0.00,WeatherCatV1.02B3,2013-09-11 08:18:00,
2013-09-11 04:23:00,76.5,46.8,30.04,NNW,339,0.0,0.0,35,0.00,,,0.00,WeatherCatV1.02B3,2013-09-11 08:23:00,
2013-09-11 04:28:00,76.5,46.8,30.04,NNW,339,3.0,5.0,35,0.00,,,0.00,WeatherCatV1.02B3,2013-09-11 08:28:00,
2013-09-11 04:33:00,76.6,46.9,30.05,NNW,339,5.0,5.0,35,0.00,,,0.00,WeatherCatV1.02B3,2013-09-11 08:33:00,
2013-09-11 04:38:00,76.6,46.9,30.04,NNW,339,6.0,7.0,35,0.00,,,0.00,WeatherCatV1.02B3,2013-09-11 08:38:00,
2013-09-11 04:43:00,76.6,46.9,30.05,NNW,339,0.0,4.0,35,0.00,,,0.00,WeatherCatV1.02B3,2013-09-11 08:43:00,
2013-09-11 04:48:00,76.5,46.8,30.04,NNW,339,2.0,4.0,35,0.00,,,0.00,WeatherCatV1.02B3,2013-09-11 08:48:00,
2013-09-11 04:53:00,76.5,46.8,30.04,NNW,339,0.0,5.0,35,0.00,,,0.00,WeatherCatV1.02B3,2013-09-11 08:53:00,
2013-09-11 04:58:00,76.5,46.8,30.04,NNW,339,0.0,0.0,35,0.00,,,0.00,WeatherCatV1.02B3,2013-09-11 08:58:00,
2013-09-11 05:03:00,76.5,46.8,30.04,NNW,339,0.0,0.0,35,0.00,,,0.00,WeatherCatV1.02B3,2013-09-11 09:03:00,
2013-09-11 05:08:00,76.4,46.7,30.04,NNW,339,3.0,5.0,35,0.00,,,0.00,WeatherCatV1.02B3,2013-09-11 09:08:00,
2013-09-11 05:13:00,76.4,46.7,30.04,NNW,339,0.0,5.0,35,0.00,,,0.00,WeatherCatV1.02B3,2013-09-11 09:13:00,
2013-09-11 05:18:00,76.4,46.7,30.04,NNW,339,3.0,4.0,35,0.00,,,0.00,WeatherCatV1.02B3,2013-09-11 09:18:00,
2013-09-11 05:23:00,76.3,46.6,30.04,NNW,339,0.0,0.0,35,0.00,,,0.00,WeatherCatV1.02B3,2013-09-11 09:23:00,
2013-09-11 05:28:00,76.3,46.6,30.04,NNW,339,1.0,1.0,35,0.00,,,0.00,WeatherCatV1.02B3,2013-09-11 09:28:00,
2013-09-11 05:33:00,76.3,46.6,30.04,NNW,339,0.0,3.0,35,0.00,,,0.00,WeatherCatV1.02B3,2013-09-11 09:33:00,
2013-09-11 05:38:00,76.3,46.6,30.05,NNW,339,0.0,5.0,35,0.00,,,0.00,WeatherCatV1.02B3,2013-09-11 09:38:00,
2013-09-11 05:43:00,76.3,46.6,30.05,NNW,339,0.0,0.0,35,0.00,,,0.00,WeatherCatV1.02B3,2013-09-11 09:43:00,
2013-09-11 05:48:00,76.3,46.6,30.05,NNW,339,4.0,4.0,35,0.00,,,0.00,WeatherCatV1.02B3,2013-09-11 09:48:00,
2013-09-11 05:53:00,76.2,46.5,30.05,NNW,339,0.0,3.0,35,0.00,,,0.00,WeatherCatV1.02B3,2013-09-11 09:53:00,
2013-09-11 05:58:00,76.2,46.5,30.05,NNW,339,0.0,0.0,35,0.00,,,0.00,WeatherCatV1.02B3,2013-09-11 09:58:00,
2013-09-11 06:03:00,76.2,46.5,30.06,NNW,339,7.0,7.0,35,0.00,,,0.00,WeatherCatV1.02B3,2013-09-11 10:03:00,
2013-09-11 06:08:00,76.3,46.6,30.06,NNW,339,0.0,1.0,35,0.00,,,0.00,WeatherCatV1.02B3,2013-09-11 10:08:00,
2013-09-11 06:13:00,76.3,46.6,30.06,NNW,339,3.0,4.0,35,0.00,,,0.00,WeatherCatV1.02B3,2013-09-11 10:13:00,
2013-09-11 06:18:00,76.3,46.6,30.06,NNW,339,0.0,0.0,35,0.00,,,0.00,WeatherCatV1.02B3,2013-09-11 10:18:00,
2013-09-11 06:23:00,76.3,45.8,30.06,NNW,339,0.0,1.0,34,0.00,,,0.00,WeatherCatV1.02B3,2013-09-11 10:23:00,
2013-09-11 06:28:00,76.3,45.8,30.06,NNW,339,0.0,0.0,34,0.00,,,0.00,WeatherCatV1.02B3,2013-09-11 10:28:00,
2013-09-11 06:33:00,76.2,45.8,30.06,NNW,339,0.0,0.0,34,0.00,,,0.00,WeatherCatV1.02B3,2013-09-11 10:33:00,
2013-09-11 06:38:00,76.2,45.8,30.06,NNW,339,0.0,0.0,34,0.00,,,0.00,WeatherCatV1.02B3,2013-09-11 10:38:00,
2013-09-11 06:43:00,76.2,45.8,30.06,NNW,339,0.0,0.0,34,0.00,,,0.00,WeatherCatV1.02B3,2013-09-11 10:43:00,
2013-09-11 06:48:00,76.2,45.8,30.06,NNW,339,0.0,2.0,34,0.00,,,0.00,WeatherCatV1.02B3,2013-09-11 10:48:00,
2013-09-11 06:53:00,76.1,45.7,30.06,NNW,339,0.0,3.0,34,0.00,,,0.00,WeatherCatV1.02B3,2013-09-11 10:53:00,
2013-09-11 06:58:00,76.1,45.7,30.06,NNW,339,0.0,0.0,34,0.00,,,0.00,WeatherCatV1.02B3,2013-09-11 10:58:00,
2013-09-11 07:03:00,76.1,45.7,30.06,NNW,339,0.0,0.0,34,0.00,,,0.00,WeatherCatV1.02B3,2013-09-11 11:03:00,
2013-09-11 07:08:00,76.2,45.8,30.06,NNW,339,0.0,1.0,34,0.00,,,0.00,WeatherCatV1.02B3,2013-09-11 11:08:00,
2013-09-11 07:13:00,76.2,45.8,30.06,NNW,339,1.0,2.0,34,0.00,,,0.00,WeatherCatV1.02B3,2013-09-11 11:13:00,
2013-09-11 07:18:00,76.2,45.8,30.06,NNW,339,0.0,5.0,34,0.00,,,0.00,WeatherCatV1.02B3,2013-09-11 11:18:00,
2013-09-11 07:23:00,76.2,45.8,30.06,NNW,339,2.0,5.0,34,0.00,,,0.00,WeatherCatV1.02B3,2013-09-11 11:23:00,
2013-09-11 07:28:00,76.3,45.8,30.07,NNW,339,6.0,8.0,34,0.00,,,0.00,WeatherCatV1.02B3,2013-09-11 11:28:00,
2013-09-11 07:33:00,76.3,45.8,30.07,NNW,339,3.0,7.0,34,0.00,,,0.00,WeatherCatV1.02B3,2013-09-11 11:33:00,
2013-09-11 07:38:00,76.4,45.9,30.06,NNW,339,3.0,6.0,34,0.00,,,0.00,WeatherCatV1.02B3,2013-09-11 11:38:00,
2013-09-11 07:43:00,76.4,45.9,30.07,NNW,339,3.0,4.0,34,0.00,,,0.00,WeatherCatV1.02B3,2013-09-11 11:43:00,
2013-09-11 07:48:00,76.5,46.0,30.06,NNW,339,4.0,6.0,34,0.00,,,0.00,WeatherCatV1.02B3,2013-09-11 11:48:00,
2013-09-11 07:53:00,76.6,46.1,30.06,NNW,339,6.0,7.0,34,0.00,,,0.00,WeatherCatV1.02B3,2013-09-11 11:53:00,
2013-09-11 07:58:00,76.6,46.1,30.06,NNW,339,3.0,5.0,34,0.00,,,0.00,WeatherCatV1.02B3,2013-09-11 11:58:00,
2013-09-11 08:03:00,76.7,46.2,30.07,NW,316,8.0,11.0,34,0.00,,,0.00,WeatherCatV1.02B3,2013-09-11 12:03:00,
2013-09-11 08:08:00,76.8,46.3,30.07,NW,314,2.0,7.0,34,0.00,,,0.00,WeatherCatV1.02B3,2013-09-11 12:08:00,
2013-09-11 08:13:00,76.9,46.4,30.07,NW,325,5.0,7.0,34,0.00,,,0.00,WeatherCatV1.02B3,2013-09-11 12:13:00,
2013-09-11 08:18:00,76.9,46.4,30.07,NW,323,4.0,4.0,34,0.00,,,0.00,WeatherCatV1.02B3,2013-09-11 12:18:00,
2013-09-11 08:23:00,77.0,46.5,30.07,NW,322,4.0,10.0,34,0.00,,,0.00,WeatherCatV1.02B3,2013-09-11 12:23:00,
2013-09-11 08:28:00,77.1,46.5,30.08,NW,325,4.0,7.0,34,0.00,,,0.00,WeatherCatV1.02B3,2013-09-11 12:28:00,
2013-09-11 08:33:00,77.3,46.7,30.08,NW,313,3.0,5.0,34,0.00,,,0.00,WeatherCatV1.02B3,2013-09-11 12:33:00,
2013-09-11 08:39:00,77.5,46.9,30.08,NW,317,5.0,6.0,34,0.00,,,0.00,WeatherCatV1.02B3,2013-09-11 12:39:00,
2013-09-11 08:44:00,77.8,47.2,30.08,NW,326,2.0,3.0,34,0.00,,,0.00,WeatherCatV1.02B3,2013-09-11 12:44:00,
2013-09-11 08:49:00,78.0,47.3,30.08,NW,326,4.0,4.0,34,0.00,,,0.00,WeatherCatV1.02B3,2013-09-11 12:49:00,
2013-09-11 08:54:00,78.1,47.4,30.09,NNW,334,4.0,11.0,34,0.00,,,0.00,WeatherCatV1.02B3,2013-09-11 12:54:00,
2013-09-11 08:59:00,78.3,47.6,30.09,NNW,334,3.0,6.0,34,0.00,,,0.00,WeatherCatV1.02B3,2013-09-11 12:59:00,
2013-09-11 09:04:00,78.7,47.9,30.09,NNW,339,4.0,12.0,34,0.00,,,0.00,WeatherCatV1.02B3,2013-09-11 13:04:00,
2013-09-11 09:09:00,78.8,48.0,30.09,NNW,341,3.0,7.0,34,0.00,,,0.00,WeatherCatV1.02B3,2013-09-11 13:09:00,
2013-09-11 09:14:00,79.3,49.2,30.09,North,8,6.0,14.0,35,0.00,,,0.00,WeatherCatV1.02B3,2013-09-11 13:14:00,
2013-09-11 09:19:00,79.8,49.7,30.09,NNW,346,4.0,6.0,35,0.00,,,0.00,WeatherCatV1.02B3,2013-09-11 13:19:00,
2013-09-11 09:24:00,80.3,50.9,30.09,NW,325,4.0,14.0,36,0.00,,,0.00,WeatherCatV1.02B3,2013-09-11 13:24:00,
2013-09-11 09:29:00,81.2,53.9,30.09,North,4,7.0,14.0,39,0.00,,,0.00,WeatherCatV1.02B3,2013-09-11 13:29:00,
2013-09-11 09:34:00,81.7,57.0,30.09,NW,322,9.0,13.0,43,0.00,,,0.00,WeatherCatV1.02B3,2013-09-11 13:34:00,
2013-09-11 09:39:00,82.1,59.8,30.09,NNW,335,8.0,15.0,47,0.00,,,0.00,WeatherCatV1.02B3,2013-09-11 13:39:00,
2013-09-11 09:44:00,82.7,61.0,30.09,NW,312,10.0,20.0,48,0.00,,,0.00,WeatherCatV1.02B3,2013-09-11 13:44:00,
2013-09-11 09:49:00,82.9,62.3,30.09,NNW,327,11.0,13.0,50,0.00,,,0.00,WeatherCatV1.02B3,2013-09-11 13:49:00,
2013-09-11 09:54:00,82.8,63.3,30.08,NNW,338,9.0,15.0,52,0.00,,,0.00,WeatherCatV1.02B3,2013-09-11 13:54:00,
2013-09-11 09:59:00,83.1,64.2,30.08,NNW,333,9.0,15.0,53,0.00,,,0.00,WeatherCatV1.02B3,2013-09-11 13:59:00,
2013-09-11 10:04:00,83.5,64.5,30.09,NW,315,10.0,10.0,53,0.00,,,0.00,WeatherCatV1.02B3,2013-09-11 14:04:00,
2013-09-11 10:09:00,83.3,65.4,30.09,NNE,14,4.0,12.0,55,0.00,,,0.00,WeatherCatV1.02B3,2013-09-11 14:09:00,
2013-09-11 10:14:00,83.6,65.7,30.09,NNW,341,11.0,17.0,55,0.00,,,0.00,WeatherCatV1.02B3,2013-09-11 14:14:00,
2013-09-11 10:19:00,84.1,66.7,30.09,NNW,341,7.0,12.0,56,0.00,,,0.00,WeatherCatV1.02B3,2013-09-11 14:19:00,
2013-09-11 10:24:00,84.9,66.9,30.09,North,349,6.0,6.0,55,0.00,,,0.00,WeatherCatV1.02B3,2013-09-11 14:24:00,
2013-09-11 10:29:00,85.5,69.0,30.09,NNW,347,5.0,11.0,58,0.00,,,0.00,WeatherCatV1.02B3,2013-09-11 14:29:00,
2013-09-11 10:34:00,86.1,70.1,30.09,North,351,4.0,14.0,59,0.00,,,0.00,WeatherCatV1.02B3,2013-09-11 14:34:00,
2013-09-11 10:39:00,86.3,70.7,30.09,NE,48,7.0,17.0,60,0.00,,,0.00,WeatherCatV1.02B3,2013-09-11 14:39:00,
2013-09-11 10:44:00,86.9,71.3,30.09,North,8,6.0,16.0,60,0.00,,,0.00,WeatherCatV1.02B3,2013-09-11 14:44:00,
2013-09-11 10:49:00,86.7,71.6,30.09,NNW,345,3.0,8.0,61,0.00,,,0.00,WeatherCatV1.02B3,2013-09-11 14:49:00,
2013-09-11 10:54:00,86.9,72.3,30.09,NNW,348,10.0,17.0,62,0.00,,,0.00,WeatherCatV1.02B3,2013-09-11 14:54:00,
2013-09-11 10:59:00,87.5,72.8,30.09,NNW,328,11.0,17.0,62,0.00,,,0.00,WeatherCatV1.02B3,2013-09-11 14:59:00,
2013-09-11 11:04:00,88.1,73.4,30.08,NNE,21,4.0,14.0,62,0.00,,,0.00,WeatherCatV1.02B3,2013-09-11 15:04:00,
2013-09-11 11:09:00,88.6,73.9,30.08,North,354,7.0,10.0,62,0.00,,,0.00,WeatherCatV1.02B3,2013-09-11 15:09:00,
2013-09-11 11:14:00,89.2,74.4,30.08,NNW,344,7.0,15.0,62,0.00,,,0.00,WeatherCatV1.02B3,2013-09-11 15:14:00,
2013-09-11 11:19:00,89.9,74.6,30.08,North,356,6.0,7.0,61,0.00,,,0.00,WeatherCatV1.02B3,2013-09-11 15:19:00,
2013-09-11 11:24:00,90.5,74.7,30.08,North,351,10.0,11.0,60,0.00,,,0.00,WeatherCatV1.02B3,2013-09-11 15:24:00,
2013-09-11 11:29:00,90.5,74.7,30.08,North,354,5.0,12.0,60,0.00,,,0.00,WeatherCatV1.02B3,2013-09-11 15:29:00,
2013-09-11 11:34:00,90.7,74.9,30.08,NW,316,9.0,11.0,60,0.00,,,0.00,WeatherCatV1.02B3,2013-09-11 15:34:00,
2013-09-11 11:39:00,91.1,74.7,30.08,NNW,328,12.0,16.0,59,0.00,,,0.00,WeatherCatV1.02B3,2013-09-11 15:39:00,
2013-09-11 11:44:00,90.9,71.4,30.08,North,4,10.0,14.0,53,0.00,,,0.00,WeatherCatV1.02B3,2013-09-11 15:44:00,
2013-09-11 11:49:00,90.8,71.8,30.08,North,7,4.0,7.0,54,0.00,,,0.00,WeatherCatV1.02B3,2013-09-11 15:49:00,
2013-09-11 11:54:00,91.2,72.7,30.08,North,6,9.0,12.0,55,0.00,,,0.00,WeatherCatV1.02B3,2013-09-11 15:54:00,
2013-09-11 11:59:00,91.8,71.0,30.08,NNW,328,5.0,14.0,51,0.00,,,0.00,WeatherCatV1.02B3,2013-09-11 15:59:00,
2013-09-11 12:04:00,91.9,71.7,30.08,North,350,10.0,14.0,52,0.00,,,0.00,WeatherCatV1.02B3,2013-09-11 16:04:00,
2013-09-11 12:09:00,91.9,72.3,30.08,NNE,22,7.0,12.0,53,0.00,,,0.00,WeatherCatV1.02B3,2013-09-11 16:09:00,
2013-09-11 12:14:00,92.2,73.7,30.08,WNW,302,2.0,13.0,55,0.00,,,0.00,WeatherCatV1.02B3,2013-09-11 16:14:00,
2013-09-11 12:19:00,93.1,73.4,30.08,NW,324,5.0,12.0,53,0.00,,,0.00,WeatherCatV1.02B3,2013-09-11 16:19:00,
2013-09-11 12:24:00,92.9,73.8,30.08,NNW,343,11.0,16.0,54,0.00,,,0.00,WeatherCatV1.02B3,2013-09-11 16:24:00,
2013-09-11 12:29:00,92.4,73.3,30.08,NNW,345,15.0,16.0,54,0.00,,,0.00,WeatherCatV1.02B3,2013-09-11 16:29:00,
2013-09-11 12:34:00,92.9,74.8,30.08,NW,312,9.0,19.0,56,0.00,,,0.00,WeatherCatV1.02B3,2013-09-11 16:34:00,
2013-09-11 12:39:00,92.6,76.1,30.07,North,352,4.0,9.0,59,0.00,,,0.00,WeatherCatV1.02B3,2013-09-11 16:39:00,
2013-09-11 12:44:00,92.7,75.2,30.07,NNW,339,10.0,14.0,57,0.00,,,0.00,WeatherCatV1.02B3,2013-09-11 16:44:00,
2013-09-11 12:49:00,91.9,75.0,30.08,North,352,13.0,16.0,58,0.00,,,0.00,WeatherCatV1.02B3,2013-09-11 16:49:00,
2013-09-11 12:54:00,91.3,75.4,30.07,NW,308,11.0,11.0,60,0.00,,,0.00,WeatherCatV1.02B3,2013-09-11 16:54:00,
2013-09-11 12:59:00,91.8,75.4,30.07,NW,321,17.0,22.0,59,0.00,,,0.00,WeatherCatV1.02B3,2013-09-11 16:59:00,
2013-09-11 13:04:00,92.3,75.3,30.07,North,5,10.0,15.0,58,0.00,,,0.00,WeatherCatV1.02B3,2013-09-11 17:04:00,
2013-09-11 13:09:00,92.7,75.7,30.07,North,349,5.0,15.0,58,0.00,,,0.00,WeatherCatV1.02B3,2013-09-11 17:09:00,
2013-09-11 13:14:00,92.9,76.4,30.07,NNW,348,5.0,15.0,59,0.00,,,0.00,WeatherCatV1.02B3,2013-09-11 17:14:00,
2013-09-11 13:19:00,93.3,75.7,30.07,NNW,348,14.0,19.0,57,0.00,,,0.00,WeatherCatV1.02B3,2013-09-11 17:19:00,
2013-09-11 13:24:00,93.8,77.3,30.06,North,358,4.0,7.0,59,0.00,,,0.00,WeatherCatV1.02B3,2013-09-11 17:24:00,
2013-09-11 13:29:00,94.1,76.0,30.06,NNW,348,8.0,12.0,56,0.00,,,0.00,WeatherCatV1.02B3,2013-09-11 17:29:00,
2013-09-11 13:34:00,94.0,75.9,30.06,NNE,21,6.0,11.0,56,0.00,,,0.00,WeatherCatV1.02B3,2013-09-11 17:34:00,
2013-09-11 13:39:00,93.7,76.6,30.05,NNE,25,4.0,10.0,58,0.00,,,0.00,WeatherCatV1.02B3,2013-09-11 17:39:00,
2013-09-11 13:44:00,93.3,75.2,30.05,NNE,33,4.0,7.0,56,0.00,,,0.00,WeatherCatV1.02B3,2013-09-11 17:44:00,
2013-09-11 13:49:00,92.4,75.4,30.05,NNW,348,9.0,10.0,58,0.00,,,0.00,WeatherCatV1.02B3,2013-09-11 17:49:00,
2013-09-11 13:54:00,91.8,75.4,30.05,North,350,5.0,9.0,59,0.00,,,0.00,WeatherCatV1.02B3,2013-09-11 17:54:00,
2013-09-11 13:59:00,91.2,76.3,30.05,North,350,12.0,12.0,62,0.00,,,0.00,WeatherCatV1.02B3,2013-09-11 17:59:00,
2013-09-11 14:04:00,91.0,76.1,30.05,NNW,331,5.0,16.0,62,0.00,,,0.00,WeatherCatV1.02B3,2013-09-11 18:04:00,
2013-09-11 14:09:00,90.6,76.2,30.05,NNW,340,3.0,10.0,63,0.00,,,0.00,WeatherCatV1.02B3,2013-09-11 18:09:00,
2013-09-11 14:14:00,91.4,77.0,30.04,NNW,331,12.0,15.0,63,0.00,,,0.00,WeatherCatV1.02B3,2013-09-11 18:14:00,
2013-09-11 14:19:00,92.1,76.7,30.04,North,349,7.0,16.0,61,0.00,,,0.00,WeatherCatV1.02B3,2013-09-11 18:19:00,
2013-09-11 14:24:00,92.2,76.8,30.04,NNW,331,14.0,15.0,61,0.00,,,0.00,WeatherCatV1.02B3,2013-09-11 18:24:00,
2013-09-11 14:29:00,92.6,76.1,30.04,NNW,338,6.0,17.0,59,0.00,,,0.00,WeatherCatV1.02B3,2013-09-11 18:29:00,
2013-09-11 14:34:00,93.2,76.2,30.03,NNW,346,6.0,11.0,58,0.00,,,0.00,WeatherCatV1.02B3,2013-09-11 18:34:00,
2013-09-11 14:39:00,93.6,76.0,30.03,North,358,3.0,12.0,57,0.00,,,0.00,WeatherCatV1.02B3,2013-09-11 18:39:00,
2013-09-11 14:44:00,93.6,77.1,30.03,NNW,343,9.0,13.0,59,0.00,,,0.00,WeatherCatV1.02B3,2013-09-11 18:44:00,
2013-09-11 14:49:00,93.7,75.0,30.02,NE,36,10.0,12.0,55,0.00,,,0.00,WeatherCatV1.02B3,2013-09-11 18:49:00,
2013-09-11 14:54:00,94.1,76.0,30.02,NNW,331,5.0,16.0,56,0.00,,,0.00,WeatherCatV1.02B3,2013-09-11 18:54:00,
2013-09-11 14:59:00,94.2,77.1,30.02,NNW,328,5.0,9.0,58,0.00,,,0.00,WeatherCatV1.02B3,2013-09-11 18:59:00,
2013-09-11 15:04:00,94.7,76.0,30.02,NNW,339,10.0,17.0,55,0.00,,,0.00,WeatherCatV1.02B3,2013-09-11 19:04:00,
2013-09-11 15:09:00,94.6,74.2,30.01,NW,315,10.0,13.0,52,0.00,,,0.00,WeatherCatV1.02B3,2013-09-11 19:09:00,
2013-09-11 15:14:00,94.3,75.0,30.01,North,10,11.0,21.0,54,0.00,,,0.00,WeatherCatV1.02B3,2013-09-11 19:14:00,
2013-09-11 15:19:00,94.4,74.6,30.01,NNE,27,4.0,13.0,53,0.00,,,0.00,WeatherCatV1.02B3,2013-09-11 19:19:00,
2013-09-11 15:24:00,94.6,76.4,30.01,NNW,348,1.0,13.0,56,0.00,,,0.00,WeatherCatV1.02B3,2013-09-11 19:24:00,
2013-09-11 15:29:00,94.4,74.6,30.01,North,0,11.0,17.0,53,0.00,,,0.00,WeatherCatV1.02B3,2013-09-11 19:29:00,
2013-09-11 15:34:00,93.3,73.6,30.01,NNW,346,5.0,13.0,53,0.00,,,0.00,WeatherCatV1.02B3,2013-09-11 19:34:00,
2013-09-11 15:39:00,93.4,74.2,30.01,NNW,336,14.0,15.0,54,0.00,,,0.00,WeatherCatV1.02B3,2013-09-11 19:39:00,
2013-09-11 15:44:00,93.8,74.0,30.01,NNW,343,9.0,13.0,53,0.00,,,0.00,WeatherCatV1.02B3,2013-09-11 19:44:00,
2013-09-11 15:49:00,94.1,74.3,30.01,NNW,343,3.0,6.0,53,0.00,,,0.00,WeatherCatV1.02B3,2013-09-11 19:49:00,
2013-09-11 15:54:00,94.4,75.1,30.00,NNW,343,3.0,7.0,54,0.00,,,0.00,WeatherCatV1.02B3,2013-09-11 19:54:00,
2013-09-11 15:59:00,94.5,76.3,30.00,NW,316,9.0,9.0,56,0.00,,,0.00,WeatherCatV1.02B3,2013-09-11 19:59:00,
2013-09-11 16:04:00,94.6,74.2,30.01,NNW,348,6.0,14.0,52,0.00,,,0.00,WeatherCatV1.02B3,2013-09-11 20:04:00,
2013-09-11 16:09:00,94.4,74.0,30.01,NW,321,13.0,17.0,52,0.00,,,0.00,WeatherCatV1.02B3,2013-09-11 20:09:00,
2013-09-11 16:14:00,93.6,73.8,30.00,NNE,20,8.0,11.0,53,0.00,,,0.00,WeatherCatV1.02B3,2013-09-11 20:14:00,
2013-09-11 16:19:00,93.6,73.8,30.00,North,356,9.0,13.0,53,0.00,,,0.00,WeatherCatV1.02B3,2013-09-11 20:19:00,
2013-09-11 16:24:00,93.8,74.6,30.00,North,0,6.0,10.0,54,0.00,,,0.00,WeatherCatV1.02B3,2013-09-11 20:24:00,
2013-09-11 16:29:00,93.7,73.4,30.01,North,8,10.0,11.0,52,0.00,,,0.00,WeatherCatV1.02B3,2013-09-11 20:29:00,
2013-09-11 16:34:00,93.6,73.3,30.00,NW,312,7.0,11.0,52,0.00,,,0.00,WeatherCatV1.02B3,2013-09-11 20:34:00,
2013-09-11 16:39:00,93.3,73.6,30.00,NNW,339,7.0,16.0,53,0.00,,,0.00,WeatherCatV1.02B3,2013-09-11 20:39:00,
2013-09-11 16:44:00,93.2,72.9,30.00,North,6,3.0,12.0,52,0.00,,,0.00,WeatherCatV1.02B3,2013-09-11 20:44:00,
2013-09-11 16:49:00,93.0,73.3,30.00,WNW,291,6.0,11.0,53,0.00,,,0.00,WeatherCatV1.02B3,2013-09-11 20:49:00,
2013-09-11 16:54:00,93.0,72.7,30.00,NNW,328,14.0,14.0,52,0.00,,,0.00,WeatherCatV1.02B3,2013-09-11 20:54:00,
2013-09-11 16:59:00,92.8,71.4,30.00,North,2,2.0,10.0,50,0.00,,,0.00,WeatherCatV1.02B3,2013-09-11 20:59:00,
2013-09-11 17:04:00,92.6,70.6,30.00,North,352,9.0,12.0,49,0.00,,,0.00,WeatherCatV1.02B3,2013-09-11 21:04:00,
2013-09-11 17:09:00,92.7,71.3,30.00,NW,306,6.0,10.0,50,0.00,,,0.00,WeatherCatV1.02B3,2013-09-11 21:09:00,
2013-09-11 17:14:00,92.6,70.6,30.00,NW,304,8.0,8.0,49,0.00,,,0.00,WeatherCatV1.02B3,2013-09-11 21:14:00,
2013-09-11 17:19:00,92.5,69.9,30.01,NNW,336,6.0,11.0,48,0.00,,,0.00,WeatherCatV1.02B3,2013-09-11 21:19:00,
2013-09-11 17:24:00,92.4,69.8,30.00,North,350,6.0,14.0,48,0.00,,,0.00,WeatherCatV1.02B3,2013-09-11 21:24:00,
2013-09-11 17:29:00,92.3,71.5,30.00,NNW,335,10.0,12.0,51,0.00,,,0.00,WeatherCatV1.02B3,2013-09-11 21:29:00,
2013-09-11 17:34:00,92.2,71.4,30.00,NNW,339,8.0,14.0,51,0.00,,,0.00,WeatherCatV1.02B3,2013-09-11 21:34:00,
2013-09-11 17:39:00,92.0,71.2,30.00,NW,313,10.0,13.0,51,0.00,,,0.00,WeatherCatV1.02B3,2013-09-11 21:39:00,
2013-09-11 17:44:00,91.9,72.3,30.00,NW,318,10.0,11.0,53,0.00,,,0.00,WeatherCatV1.02B3,2013-09-11 21:44:00,
2013-09-11 17:49:00,91.8,73.8,30.00,North,351,6.0,11.0,56,0.00,,,0.00,WeatherCatV1.02B3,2013-09-11 21:49:00,
2013-09-11 17:54:00,91.6,74.2,30.01,North,10,3.0,15.0,57,0.00,,,0.00,WeatherCatV1.02B3,2013-09-11 21:54:00,
2013-09-11 17:59:00,91.3,74.9,30.01,NNW,341,4.0,6.0,59,0.00,,,0.00,WeatherCatV1.02B3,2013-09-11 21:59:00,
2013-09-11 18:04:00,90.9,74.0,30.01,NNW,346,4.0,11.0,58,0.00,,,0.00,WeatherCatV1.02B3,2013-09-11 22:04:00,
2013-09-11 18:09:00,90.6,73.8,30.01,North,352,5.0,12.0,58,0.00,,,0.00,WeatherCatV1.02B3,2013-09-11 22:09:00,
2013-09-11 18:14:00,90.2,73.9,30.01,North,353,6.0,11.0,59,0.00,,,0.00,WeatherCatV1.02B3,2013-09-11 22:14:00,
2013-09-11 18:19:00,89.8,73.0,30.02,NW,315,4.0,11.0,58,0.00,,,0.00,WeatherCatV1.02B3,2013-09-11 22:19:00,
2013-09-11 18:24:00,89.3,73.1,30.01,NNW,346,12.0,13.0,59,0.00,,,0.00,WeatherCatV1.02B3,2013-09-11 22:24:00,
2013-09-11 18:29:00,88.9,72.7,30.01,North,358,0.0,8.0,59,0.00,,,0.00,WeatherCatV1.02B3,2013-09-11 22:29:00,
2013-09-11 18:34:00,88.6,72.4,30.01,NW,317,9.0,11.0,59,0.00,,,0.00,WeatherCatV1.02B3,2013-09-11 22:34:00,
2013-09-11 18:39:00,88.3,72.6,30.00,NNW,344,9.0,10.0,60,0.00,,,0.00,WeatherCatV1.02B3,2013-09-11 22:39:00,
2013-09-11 18:44:00,88.0,72.8,30.00,NNW,345,7.0,10.0,61,0.00,,,0.00,WeatherCatV1.02B3,2013-09-11 22:44:00,
2013-09-11 18:49:00,87.8,72.6,30.01,NNW,346,5.0,7.0,61,0.00,,,0.00,WeatherCatV1.02B3,2013-09-11 22:49:00,
2013-09-11 18:54:00,87.6,72.5,30.00,NW,306,7.0,9.0,61,0.00,,,0.00,WeatherCatV1.02B3,2013-09-11 22:54:00,
2013-09-11 18:59:00,87.3,70.7,30.01,NNW,340,5.0,10.0,58,0.00,,,0.00,WeatherCatV1.02B3,2013-09-11 22:59:00,
2013-09-11 19:04:00,87.1,71.0,30.00,NNW,334,5.0,11.0,59,0.00,,,0.00,WeatherCatV1.02B3,2013-09-11 23:04:00,
2013-09-11 19:09:00,86.8,71.2,30.00,NNW,331,8.0,9.0,60,0.00,,,0.00,WeatherCatV1.02B3,2013-09-11 23:09:00,
2013-09-11 19:14:00,86.7,71.1,30.00,NNW,339,5.0,9.0,60,0.00,,,0.00,WeatherCatV1.02B3,2013-09-11 23:14:00,
2013-09-11 19:19:00,86.4,71.3,30.00,NNW,339,3.0,9.0,61,0.00,,,0.00,WeatherCatV1.02B3,2013-09-11 23:19:00,
2013-09-11 19:24:00,86.2,71.6,30.01,North,356,3.0,9.0,62,0.00,,,0.00,WeatherCatV1.02B3,2013-09-11 23:24:00,
2013-09-11 19:29:00,86.1,72.0,30.01,NNW,331,6.0,7.0,63,0.00,,,0.00,WeatherCatV1.02B3,2013-09-11 23:29:00,
2013-09-11 19:34:00,85.9,71.8,30.01,NNW,337,3.0,4.0,63,0.00,,,0.00,WeatherCatV1.02B3,2013-09-11 23:34:00,
2013-09-11 19:39:00,85.7,71.6,30.01,NNW,339,2.0,5.0,63,0.00,,,0.00,WeatherCatV1.02B3,2013-09-11 23:39:00,
2013-09-11 19:44:00,85.6,72.0,30.01,North,359,4.0,4.0,64,0.00,,,0.00,WeatherCatV1.02B3,2013-09-11 23:44:00,
2013-09-11 19:49:00,85.4,72.3,30.01,North,354,3.0,6.0,65,0.00,,,0.00,WeatherCatV1.02B3,2013-09-11 23:49:00,
2013-09-11 19:54:00,85.2,71.6,30.01,North,349,3.0,9.0,64,0.00,,,0.00,WeatherCatV1.02B3,2013-09-11 23:54:00,
2013-09-11 19:59:00,84.9,71.8,30.02,NNW,347,6.0,6.0,65,0.00,,,0.00,WeatherCatV1.02B3,2013-09-11 23:59:00,
2013-09-11 20:04:00,84.8,71.7,30.01,NNW,331,5.0,9.0,65,0.00,,,0.00,WeatherCatV1.02B3,2013-09-12 00:04:00,
2013-09-11 20:09:00,84.6,71.5,30.01,NNW,340,2.0,5.0,65,0.00,,,0.00,WeatherCatV1.02B3,2013-09-12 00:09:00,
2013-09-11 20:14:00,84.4,71.3,30.01,NNW,340,4.0,4.0,65,0.00,,,0.00,WeatherCatV1.02B3,2013-09-12 00:14:00,
2013-09-11 20:19:00,84.2,71.1,30.02,NNW,340,4.0,7.0,65,0.00,,,0.00,WeatherCatV1.02B3,2013-09-12 00:19:00,
2013-09-11 20:24:00,84.0,70.9,30.02,NNW,341,4.0,7.0,65,0.00,,,0.00,WeatherCatV1.02B3,2013-09-12 00:24:00,
2013-09-11 20:29:00,83.8,70.8,30.02,NNW,328,3.0,10.0,65,0.00,,,0.00,WeatherCatV1.02B3,2013-09-12 00:29:00,
2013-09-11 20:34:00,83.5,70.0,30.02,NNW,327,3.0,3.0,64,0.00,,,0.00,WeatherCatV1.02B3,2013-09-12 00:34:00,
2013-09-11 20:39:00,83.3,69.8,30.02,NNW,327,7.0,7.0,64,0.00,,,0.00,WeatherCatV1.02B3,2013-09-12 00:39:00,
2013-09-11 20:44:00,83.2,69.7,30.02,NNW,327,4.0,6.0,64,0.00,,,0.00,WeatherCatV1.02B3,2013-09-12 00:44:00,
2013-09-11 20:49:00,83.0,69.5,30.02,NNW,341,6.0,9.0,64,0.00,,,0.00,WeatherCatV1.02B3,2013-09-12 00:49:00,
2013-09-11 20:54:00,82.8,69.3,30.02,NNW,341,2.0,4.0,64,0.00,,,0.00,WeatherCatV1.02B3,2013-09-12 00:54:00,
2013-09-11 20:59:00,82.6,68.7,30.03,NNW,340,3.0,9.0,63,0.00,,,0.00,WeatherCatV1.02B3,2013-09-12 00:59:00,
2013-09-11 21:04:00,82.4,68.5,30.03,NNW,339,2.0,7.0,63,0.00,,,0.00,WeatherCatV1.02B3,2013-09-12 01:04:00,
2013-09-11 21:11:00,82.3,67.5,30.03,NNW,341,4.0,5.0,61,0.00,,,0.00,WeatherCatV1.02B3,2013-09-12 01:11:00,
2013-09-11 21:16:00,82.2,67.4,30.03,NNW,347,3.0,7.0,61,0.00,,,0.00,WeatherCatV1.02B3,2013-09-12 01:16:00,
2013-09-11 21:21:00,82.2,66.9,30.03,North,354,5.0,7.0,60,0.00,,,0.00,WeatherCatV1.02B3,2013-09-12 01:21:00,
2013-09-11 21:26:00,82.1,66.3,30.03,NNW,341,5.0,6.0,59,0.00,,,0.00,WeatherCatV1.02B3,2013-09-12 01:26:00,
2013-09-11 21:31:00,82.0,66.2,30.03,NNW,340,3.0,9.0,59,0.00,,,0.00,WeatherCatV1.02B3,2013-09-12 01:31:00,
2013-09-11 21:36:00,81.9,65.6,30.03,NNW,340,1.0,5.0,58,0.00,,,0.00,WeatherCatV1.02B3,2013-09-12 01:36:00,
2013-09-11 21:41:00,81.9,65.6,30.03,NNW,340,0.0,6.0,58,0.00,,,0.00,WeatherCatV1.02B3,2013-09-12 01:41:00,
2013-09-11 21:46:00,81.8,65.6,30.03,NNW,340,3.0,6.0,58,0.00,,,0.00,WeatherCatV1.02B3,2013-09-12 01:46:00,
2013-09-11 21:51:00,81.8,65.1,30.03,NNW,340,3.0,5.0,57,0.00,,,0.00,WeatherCatV1.02B3,2013-09-12 01:51:00,
2013-09-11 21:56:00,81.7,65.0,30.03,NNW,340,0.0,4.0,57,0.00,,,0.00,WeatherCatV1.02B3,2013-09-12 01:56:00,
2013-09-11 22:01:00,81.6,64.4,30.03,NNW,340,0.0,5.0,56,0.00,,,0.00,WeatherCatV1.02B3,2013-09-12 02:01:00,
2013-09-11 22:06:00,81.5,64.3,30.03,NNW,340,0.0,6.0,56,0.00,,,0.00,WeatherCatV1.02B3,2013-09-12 02:06:00,
2013-09-11 22:11:00,81.4,63.7,30.04,NNW,341,2.0,5.0,55,0.00,,,0.00,WeatherCatV1.02B3,2013-09-12 02:11:00,
2013-09-11 22:16:00,81.4,63.7,30.04,NNW,341,3.0,5.0,55,0.00,,,0.00,WeatherCatV1.02B3,2013-09-12 02:16:00,
2013-09-11 22:21:00,81.4,63.1,30.04,NNW,341,0.0,5.0,54,0.00,,,0.00,WeatherCatV1.02B3,2013-09-12 02:21:00,
2013-09-11 22:26:00,81.3,63.0,30.04,NNW,341,0.0,3.0,54,0.00,,,0.00,WeatherCatV1.02B3,2013-09-12 02:26:00,
2013-09-11 22:31:00,81.2,62.4,30.04,NNW,341,0.0,2.0,53,0.00,,,0.00,WeatherCatV1.02B3,2013-09-12 02:31:00,
2013-09-11 22:36:00,81.1,62.3,30.04,NNW,341,0.0,1.0,53,0.00,,,0.00,WeatherCatV1.02B3,2013-09-12 02:36:00,
2013-09-11 22:41:00,81.1,61.8,30.04,NNW,341,0.0,0.0,52,0.00,,,0.00,WeatherCatV1.02B3,2013-09-12 02:41:00,
2013-09-11 22:46:00,81.1,61.2,30.04,NNW,341,0.0,1.0,51,0.00,,,0.00,WeatherCatV1.02B3,2013-09-12 02:46:00,
2013-09-11 22:51:00,81.0,61.1,30.04,NNW,341,0.0,0.0,51,0.00,,,0.00,WeatherCatV1.02B3,2013-09-12 02:51:00,
2013-09-11 22:56:00,80.9,61.0,30.04,NNW,341,0.0,1.0,51,0.00,,,0.00,WeatherCatV1.02B3,2013-09-12 02:56:00,
2013-09-11 23:01:00,80.9,60.5,30.04,NNW,341,0.0,0.0,50,0.00,,,0.00,WeatherCatV1.02B3,2013-09-12 03:01:00,
2013-09-11 23:06:00,80.9,59.9,30.04,NNW,341,0.0,4.0,49,0.00,,,0.00,WeatherCatV1.02B3,2013-09-12 03:06:00,
2013-09-11 23:11:00,80.9,58.8,30.04,NNW,341,0.0,0.0,47,0.00,,,0.00,WeatherCatV1.02B3,2013-09-12 03:11:00,
2013-09-11 23:16:00,80.9,58.2,30.04,NNW,341,0.0,0.0,46,0.00,,,0.00,WeatherCatV1.02B3,2013-09-12 03:16:00,
2013-09-11 23:21:00,80.8,58.1,30.04,NNW,341,0.0,0.0,46,0.00,,,0.00,WeatherCatV1.02B3,2013-09-12 03:21:00,
2013-09-11 23:26:00,80.7,58.0,30.04,NNW,341,0.0,0.0,46,0.00,,,0.00,WeatherCatV1.02B3,2013-09-12 03:26:00,
2013-09-11 23:31:00,80.7,58.0,30.04,NNW,341,0.0,0.0,46,0.00,,,0.00,WeatherCatV1.02B3,2013-09-12 03:31:00,
2013-09-11 23:36:00,80.5,57.8,30.04,NNW,341,0.0,0.0,46,0.00,,,0.00,WeatherCatV1.02B3,2013-09-12 03:36:00,
2013-09-11 23:41:00,80.5,57.8,30.04,NNW,341,0.0,0.0,46,0.00,,,0.00,WeatherCatV1.02B3,2013-09-12 03:41:00,
2013-09-11 23:46:00,80.3,57.6,30.04,NNW,341,0.0,0.0,46,0.00,,,0.00,WeatherCatV1.02B3,2013-09-12 03:46:00,
2013-09-11 23:51:00,80.3,57.6,30.04,NNW,341,0.0,0.0,46,0.00,,,0.00,WeatherCatV1.02B3,2013-09-12 03:51:00,
2013-09-11 23:56:00,80.2,56.9,30.04,NNW,341,0.0,0.0,45,0.00,,,0.00,WeatherCatV1.02B3,2013-09-12 03:56:00,